Long Island Mac Arthur Airport Islip US
ICAO: KISP
IATA: ISP
Category: Medium
Scheduled Services: Yes

Elevation: 99 ft
TransAlt. 18000 ft.

Airport Communications:
NEW YORK APP/DEP:118
ATIS:128.45
CLNC DEL:121.85
CTAF:119.3
GND:135.3
GUARD OPS:45
NEW YORK RDO:122.6
TWR:119.3
UNICOM:122.95

KISP Zoom In..

Runways:

(A) RW 06 length 7006 ft width 150 ft
ILS 108.30 / hdg 59

(B) RW 10 length 5034 ft width 150 ft
---- / hdg 104

(C) RW 15L length 3175 ft width 75 ft
---- / hdg 149

(D) RW 15R length 5186 ft width 150 ft
---- / hdg 149

(E) RW 24 length 7006 ft width 150 ft
ILS 108.30 / hdg 239

(F) RW 28 length 5034 ft width 150 ft
---- / hdg 284

(G) RW 33L length 5186 ft width 150 ft
---- / hdg 329

(H) RW 33R length 3175 ft width 75 ft
---- / hdg 329

Location; KISP
Day. 19 / Time. 19.56 Zulu
* Altimeter: 30.08
* Temperature: 26° c. 78.8°f.
* Wind from: 170° Speed 06 kn.
Dewpoint: 13° c.
Visibility: 10 Statute Miles.
Clouds: Few 6500 ft.

KISP 191956Z 17006KT 10SM FEW065 26/13 A3008 RMK AO2 SLP186 T02610133


Wind From 170°
Speed 06 kn.

 
 
jpsmedia.com for Web Design worldairports.se 2018   terms of use